Location: Meylan - GAD - Ancien Couvent des Capucins
(45.2229°N, 5.7790°E)
Time: 05:49:20
(UTC+01:00)

ISS - Visible Passes

Search period start: 23 February 2018 00:00
Search period end: 05 March 2018 00:00
Orbit: 402 x 407 km, 51.6° (Epoch: 23 February)

Date Brightness Start Highest point End Pass type
(mag) Time Alt. Az. Time Alt. Az. Time Alt. Az.
26 Feb -1.0 06:23:20 10° S 06:25:38 18° SE 06:27:56 10° E visible
28 Feb -2.5 06:14:14 10° SSW 06:17:17 37° SE 06:20:22 10° ENE visible
01 Mar -1.7 05:23:57 18° SSE 05:25:08 22° SE 05:27:43 10° E visible
02 Mar -0.6 04:34:05 11° ESE 04:34:05 11° ESE 04:34:27 10° ESE visible
02 Mar -3.8 06:06:45 18° SW 06:09:02 82° SSE 06:12:19 10° ENE visible
03 Mar -3.1 05:16:44 46° SE 05:16:46 46° SE 05:19:55 10° ENE visible
04 Mar -0.7 04:26:36 15° E 04:26:36 15° E 04:27:20 10° E visible
04 Mar -3.5 05:59:15 26° W 06:00:51 53° NNW 06:04:05 10° NE visible
